Time,TemperatureF,DewpointF,PressureIn,WindDirection,WindDirectionDegrees,WindSpeedMPH,WindSpeedGustMPH,Humidity,HourlyPrecipIn,Conditions,Clouds,dailyrainin,SolarRadiationWatts/m^2,SoftwareType,DateUTC
2013-03-06 00:01:00,32.0,10.0,-100.00,NE,51,0.0,11.0,39,0.00,,,0.00,0.000000,,2013-03-06 07:01:00,
2013-03-06 00:22:00,30.0,10.0,-100.00,WSW,241,0.0,4.0,43,0.00,,,0.00,0.000000,,2013-03-06 07:22:00,
2013-03-06 00:32:00,30.0,10.0,-100.00,WSW,241,0.0,4.0,43,0.00,,,0.00,0.000000,,2013-03-06 07:32:00,
2013-03-06 00:42:00,30.0,10.0,-100.00,WSW,241,0.0,4.0,43,0.00,,,0.00,0.000000,,2013-03-06 07:42:00,
2013-03-06 00:52:00,30.0,10.0,-100.00,WSW,241,0.0,4.0,43,0.00,,,0.00,0.000000,,2013-03-06 07:52:00,
2013-03-06 01:01:00,30.0,10.0,-100.00,WSW,241,0.0,4.0,43,0.00,,,0.00,0.000000,,2013-03-06 08:01:00,
2013-03-06 01:32:00,30.0,12.0,-100.00,SSW,209,0.0,5.0,46,0.00,,,-99.99,0.000000,,2013-03-06 08:32:00,
2013-03-06 01:42:00,30.0,12.0,-100.00,SSW,209,0.0,5.0,46,0.00,,,-99.99,0.000000,,2013-03-06 08:42:00,
2013-03-06 01:52:00,30.0,12.0,-100.00,SSW,209,0.0,5.0,46,0.00,,,-99.99,0.000000,,2013-03-06 08:52:00,
2013-03-06 02:01:00,30.0,12.0,-100.00,SSW,209,0.0,5.0,46,0.00,,,-99.99,0.000000,,2013-03-06 09:01:00,
2013-03-06 02:32:00,29.0,11.0,-100.00,NNE,30,0.0,6.0,47,0.00,,,0.00,0.000000,,2013-03-06 09:32:00,
2013-03-06 02:42:00,29.0,11.0,-100.00,NNE,30,0.0,6.0,47,0.00,,,0.00,0.000000,,2013-03-06 09:42:00,
2013-03-06 02:52:00,29.0,11.0,-100.00,NNE,30,0.0,6.0,47,0.00,,,0.00,0.000000,,2013-03-06 09:52:00,
2013-03-06 03:01:00,29.0,11.0,-100.00,NNE,30,0.0,6.0,47,0.00,,,0.00,0.000000,,2013-03-06 10:01:00,
2013-03-06 03:22:00,28.0,14.0,-100.00,SSE,149,3.0,4.0,54,0.00,,,0.00,0.000000,,2013-03-06 10:22:00,
2013-03-06 03:32:00,28.0,14.0,-100.00,SSE,149,3.0,4.0,54,0.00,,,0.00,0.000000,,2013-03-06 10:32:00,
2013-03-06 03:42:00,28.0,14.0,-100.00,SSE,149,3.0,4.0,54,0.00,,,0.00,0.000000,,2013-03-06 10:42:00,
2013-03-06 03:52:00,28.0,14.0,-100.00,SSE,149,3.0,4.0,54,0.00,,,0.00,0.000000,,2013-03-06 10:52:00,
2013-03-06 04:01:00,28.0,14.0,-100.00,SSE,149,3.0,4.0,54,0.00,,,0.00,0.000000,,2013-03-06 11:01:00,
2013-03-06 04:23:00,27.0,13.0,-100.00,ESE,111,0.0,6.0,55,0.00,,,0.00,0.000000,,2013-03-06 11:23:00,
2013-03-06 04:32:00,27.0,13.0,-100.00,ESE,111,0.0,6.0,55,0.00,,,0.00,0.000000,,2013-03-06 11:32:00,
2013-03-06 04:42:00,27.0,13.0,-100.00,ESE,111,0.0,6.0,55,0.00,,,0.00,0.000000,,2013-03-06 11:42:00,
2013-03-06 04:52:00,27.0,13.0,-100.00,ESE,111,0.0,6.0,55,0.00,,,0.00,0.000000,,2013-03-06 11:52:00,
2013-03-06 05:01:00,27.0,13.0,-100.00,ESE,111,0.0,6.0,55,0.00,,,0.00,0.000000,,2013-03-06 12:01:00,
2013-03-06 05:33:00,26.0,13.0,-100.00,SW,225,0.0,4.0,57,0.00,,,0.00,0.000000,,2013-03-06 12:33:00,
2013-03-06 05:43:00,26.0,13.0,-100.00,SW,225,0.0,4.0,57,0.00,,,0.00,0.000000,,2013-03-06 12:43:00,
2013-03-06 05:52:00,26.0,13.0,-100.00,SW,225,0.0,4.0,57,0.00,,,0.00,0.000000,,2013-03-06 12:52:00,
2013-03-06 06:01:00,26.0,13.0,-100.00,SW,225,0.0,4.0,57,0.00,,,0.00,0.000000,,2013-03-06 13:01:00,
2013-03-06 06:32:00,25.0,13.0,-100.00,West,278,0.0,0.0,59,0.00,,,0.00,0.000000,,2013-03-06 13:32:00,
2013-03-06 06:42:00,25.0,13.0,-100.00,West,278,0.0,0.0,59,0.00,,,0.00,0.000000,,2013-03-06 13:42:00,
2013-03-06 06:52:00,25.0,13.0,-100.00,West,278,0.0,0.0,59,0.00,,,0.00,0.000000,,2013-03-06 13:52:00,
2013-03-06 07:01:00,25.0,13.0,-100.00,West,278,0.0,0.0,59,0.00,,,0.00,0.000000,,2013-03-06 14:01:00,
2013-03-06 07:32:00,25.0,12.0,-100.00,NNW,337,0.0,4.0,58,0.00,,,0.00,0.000000,,2013-03-06 14:32:00,
2013-03-06 07:42:00,25.0,12.0,-100.00,NNW,337,0.0,4.0,58,0.00,,,0.00,0.000000,,2013-03-06 14:42:00,
2013-03-06 07:52:00,25.0,12.0,-100.00,NNW,337,0.0,4.0,58,0.00,,,0.00,0.000000,,2013-03-06 14:52:00,
2013-03-06 08:01:00,25.0,12.0,-100.00,NNW,337,0.0,4.0,58,0.00,,,0.00,0.000000,,2013-03-06 15:01:00,
2013-03-06 08:22:00,26.0,16.0,-100.00,NW,309,0.0,3.0,64,0.00,,,0.00,31.000000,,2013-03-06 15:22:00,
2013-03-06 08:32:00,26.0,16.0,-100.00,NW,309,0.0,3.0,64,0.00,,,0.00,31.000000,,2013-03-06 15:32:00,
2013-03-06 08:42:00,26.0,16.0,-100.00,NW,309,0.0,3.0,64,0.00,,,0.00,31.000000,,2013-03-06 15:42:00,
2013-03-06 08:52:00,26.0,16.0,-100.00,NW,309,0.0,3.0,64,0.00,,,0.00,31.000000,,2013-03-06 15:52:00,
2013-03-06 09:01:00,26.0,16.0,-100.00,NW,309,0.0,3.0,64,0.00,,,0.00,31.000000,,2013-03-06 16:01:00,
2013-03-06 09:32:00,29.0,15.0,-100.00,ESE,112,4.0,4.0,56,0.00,,,-99.99,93.000000,,2013-03-06 16:32:00,
2013-03-06 09:42:00,29.0,15.0,-100.00,ESE,112,4.0,4.0,56,0.00,,,-99.99,93.000000,,2013-03-06 16:42:00,
2013-03-06 09:52:00,29.0,15.0,-100.00,ESE,112,4.0,4.0,56,0.00,,,-99.99,93.000000,,2013-03-06 16:52:00,
2013-03-06 10:01:00,29.0,15.0,-100.00,ESE,112,4.0,4.0,56,0.00,,,-99.99,93.000000,,2013-03-06 17:01:00,
2013-03-06 10:22:00,31.0,16.0,-100.00,North,4,3.0,9.0,54,0.00,,,0.00,237.000000,,2013-03-06 17:22:00,
2013-03-06 10:32:00,31.0,16.0,-100.00,North,4,3.0,9.0,54,0.00,,,0.00,237.000000,,2013-03-06 17:32:00,
2013-03-06 10:42:00,31.0,16.0,-100.00,North,4,3.0,9.0,54,0.00,,,0.00,237.000000,,2013-03-06 17:42:00,
2013-03-06 10:52:00,31.0,16.0,-100.00,North,4,3.0,9.0,54,0.00,,,0.00,237.000000,,2013-03-06 17:52:00,
2013-03-06 11:01:00,31.0,16.0,-100.00,North,4,3.0,9.0,54,0.00,,,0.00,237.000000,,2013-03-06 18:01:00,
2013-03-06 11:32:00,36.0,18.0,-100.00,East,90,2.0,6.0,47,0.00,,,0.00,369.000000,,2013-03-06 18:32:00,
2013-03-06 11:42:00,36.0,18.0,-100.00,East,90,2.0,6.0,47,0.00,,,0.00,369.000000,,2013-03-06 18:42:00,
2013-03-06 11:52:00,36.0,18.0,-100.00,East,90,2.0,6.0,47,0.00,,,0.00,369.000000,,2013-03-06 18:52:00,
2013-03-06 12:02:00,36.0,18.0,-100.00,East,90,2.0,6.0,47,0.00,,,0.00,369.000000,,2013-03-06 19:02:00,
2013-03-06 12:32:00,32.0,14.0,-100.00,ENE,76,7.0,7.0,47,0.00,,,0.00,188.000000,,2013-03-06 19:32:00,
2013-03-06 12:43:00,32.0,14.0,-100.00,ENE,76,7.0,7.0,47,0.00,,,0.00,188.000000,,2013-03-06 19:43:00,
2013-03-06 12:52:00,32.0,14.0,-100.00,ENE,76,7.0,7.0,47,0.00,,,0.00,188.000000,,2013-03-06 19:52:00,
2013-03-06 13:01:00,32.0,14.0,-100.00,ENE,76,7.0,7.0,47,0.00,,,0.00,188.000000,,2013-03-06 20:01:00,
2013-03-06 13:22:00,38.0,19.0,-100.00,ENE,77,2.0,10.0,45,0.00,,,0.00,384.000000,,2013-03-06 20:22:00,
2013-03-06 13:33:00,38.0,19.0,-100.00,ENE,77,2.0,10.0,45,0.00,,,0.00,384.000000,,2013-03-06 20:33:00,
2013-03-06 13:42:00,38.0,19.0,-100.00,ENE,77,2.0,10.0,45,0.00,,,0.00,384.000000,,2013-03-06 20:42:00,
2013-03-06 13:52:00,38.0,19.0,-100.00,ENE,77,2.0,10.0,45,0.00,,,0.00,384.000000,,2013-03-06 20:52:00,
2013-03-06 14:01:00,38.0,19.0,-100.00,ENE,77,2.0,10.0,45,0.00,,,0.00,384.000000,,2013-03-06 21:01:00,
2013-03-06 14:32:00,40.0,18.0,-100.00,SE,131,10.0,10.0,40,0.00,,,0.00,411.000000,,2013-03-06 21:32:00,
2013-03-06 15:01:00,40.0,18.0,-100.00,SE,131,10.0,10.0,40,0.00,,,0.00,411.000000,,2013-03-06 22:01:00,
2013-03-06 15:32:00,41.0,17.0,-100.00,SW,214,13.0,18.0,37,0.00,,,0.00,244.000000,,2013-03-06 22:32:00,
2013-03-06 16:32:00,45.0,25.0,-100.00,SSW,201,17.0,23.0,45,0.00,,,0.00,415.000000,,2013-03-06 23:32:00,
2013-03-06 16:42:00,45.0,25.0,-100.00,SSW,201,17.0,23.0,45,0.00,,,0.00,415.000000,,2013-03-06 23:42:00,
2013-03-06 16:52:00,45.0,25.0,-100.00,SSW,201,17.0,23.0,45,0.00,,,0.00,415.000000,,2013-03-06 23:52:00,
2013-03-06 17:01:00,45.0,25.0,-100.00,SSW,201,17.0,23.0,45,0.00,,,0.00,415.000000,,2013-03-07 00:01:00,
2013-03-06 17:22:00,42.0,26.0,-100.00,WSW,240,15.0,27.0,53,0.00,,,0.00,98.000000,,2013-03-07 00:22:00,
2013-03-06 17:32:00,42.0,26.0,-100.00,WSW,240,15.0,27.0,53,0.00,,,0.00,98.000000,,2013-03-07 00:32:00,
2013-03-06 17:42:00,42.0,26.0,-100.00,WSW,240,15.0,27.0,53,0.00,,,0.00,98.000000,,2013-03-07 00:42:00,
2013-03-06 17:52:00,42.0,26.0,-100.00,WSW,240,15.0,27.0,53,0.00,,,0.00,98.000000,,2013-03-07 00:52:00,
2013-03-06 18:01:00,42.0,26.0,-100.00,WSW,240,15.0,27.0,53,0.00,,,0.00,98.000000,,2013-03-07 01:01:00,
2013-03-06 18:22:00,35.0,20.0,-100.00,SSW,213,4.0,27.0,54,0.00,,,0.00,19.000000,,2013-03-07 01:22:00,
2013-03-06 18:32:00,35.0,20.0,-100.00,SSW,213,4.0,27.0,54,0.00,,,0.00,19.000000,,2013-03-07 01:32:00,
2013-03-06 19:32:00,34.0,22.0,-100.00,SW,214,4.0,19.0,61,0.00,,,0.00,2.000000,,2013-03-07 02:32:00,
2013-03-06 19:42:00,34.0,22.0,-100.00,SW,214,4.0,19.0,61,0.00,,,0.00,2.000000,,2013-03-07 02:42:00,
2013-03-06 19:52:00,34.0,22.0,-100.00,SW,214,4.0,19.0,61,0.00,,,0.00,2.000000,,2013-03-07 02:52:00,
2013-03-06 20:01:00,34.0,22.0,-100.00,SW,214,4.0,19.0,61,0.00,,,0.00,2.000000,,2013-03-07 03:01:00,
2013-03-06 20:22:00,34.0,23.0,-100.00,West,272,0.0,7.0,65,0.00,,,0.00,0.000000,,2013-03-07 03:22:00,
2013-03-06 20:32:00,34.0,23.0,-100.00,West,272,0.0,7.0,65,0.00,,,0.00,0.000000,,2013-03-07 03:32:00,
2013-03-06 20:42:00,34.0,23.0,-100.00,West,272,0.0,7.0,65,0.00,,,0.00,0.000000,,2013-03-07 03:42:00,
2013-03-06 20:52:00,34.0,23.0,-100.00,West,272,0.0,7.0,65,0.00,,,0.00,0.000000,,2013-03-07 03:52:00,
2013-03-06 21:01:00,34.0,23.0,-100.00,West,272,0.0,7.0,65,0.00,,,0.00,0.000000,,2013-03-07 04:01:00,
2013-03-06 21:22:00,35.0,25.0,-100.00,North,353,0.0,6.0,66,0.00,,,0.00,0.000000,,2013-03-07 04:22:00,
2013-03-06 21:32:00,35.0,25.0,-100.00,North,353,0.0,6.0,66,0.00,,,0.00,0.000000,,2013-03-07 04:32:00,
2013-03-06 21:42:00,35.0,25.0,-100.00,North,353,0.0,6.0,66,0.00,,,0.00,0.000000,,2013-03-07 04:42:00,
2013-03-06 21:52:00,35.0,25.0,-100.00,North,353,0.0,6.0,66,0.00,,,0.00,0.000000,,2013-03-07 04:52:00,
2013-03-06 22:01:00,35.0,25.0,-100.00,North,353,0.0,6.0,66,0.00,,,0.00,0.000000,,2013-03-07 05:01:00,
2013-03-06 22:32:00,33.0,25.0,-100.00,East,90,3.0,6.0,71,0.00,,,0.00,0.000000,,2013-03-07 05:32:00,
2013-03-06 22:42:00,33.0,25.0,-100.00,East,90,3.0,6.0,71,0.00,,,0.00,0.000000,,2013-03-07 05:42:00,
2013-03-06 22:52:00,33.0,25.0,-100.00,East,90,3.0,6.0,71,0.00,,,0.00,0.000000,,2013-03-07 05:52:00,
2013-03-06 23:01:00,33.0,25.0,-100.00,East,90,3.0,6.0,71,0.00,,,0.00,0.000000,,2013-03-07 06:01:00,
2013-03-06 23:32:00,34.0,28.0,-100.00,SW,219,4.0,10.0,77,0.00,,,0.00,0.000000,,2013-03-07 06:32:00,
2013-03-06 23:42:00,34.0,28.0,-100.00,SW,219,4.0,10.0,77,0.00,,,0.00,0.000000,,2013-03-07 06:42:00,
2013-03-06 23:52:00,34.0,28.0,-100.00,SW,219,4.0,10.0,77,0.00,,,0.00,0.000000,,2013-03-07 06:52:00,